TIME,DELAY(SENSOR),PRES,T(CTD),SAL,OXYGEN,RAWTEMP,T(OPTODE),TCPHASE,FLUOR,BETA(BETA700),BETA(BETA412),BETA(BETA440),CDOM,C(CSC),ED(ED411.90),ED(ED443.80),ED(ED489.40),ED(ED554.70),LU(LU412.20),LU(LU443.80),LU(LU489.40),LU(LU555.00),COMP,TILTX,TILTX(TILTY),CHECK
1374594051,5806,497.8099975585937500,17.1341991424560550,36.3986015319824200,218.1647949218750000,183.9774932861328000,17.1313800811767580,31.9758205413818360,55,225,68,70,63,9780,2146955666,2147513965,2147274322,2147460854,2147079076,2146948169,2147654994,2147123812,3071,-1,8,27534
1374594190,5807,486.3900146484375000,17.2611999511718750,36.4239997863769500,220.0682983398437500,179.6757049560547000,17.2611103057861330,31.8158702850341800,55,228,68,70,62,9787,2146960886,2147510125,2147270573,2147458706,2147074889,2146951954,2147652352,2147131090,1837,-1,8,97
1374594319,5805,475.7399902343750000,17.3850994110107420,36.4488983154296900,222.0014953613281200,175.5121002197265600,17.3866996765136720,31.6578598022460940,56,226,69,70,63,9782,2146953929,2147514486,2147270884,2147459876,2147080786,2146948662,2147653641,2147124928,1073,-1,8,45632
1374594458,5803,464.0299987792969000,17.4825992584228500,36.4632987976074200,222.1360931396484400,172.2552032470703000,17.4849605560302730,31.6064395904541000,55,225,70,72,62,9787,2146954688,2147515510,2147273408,2147458185,2147076480,2146953444,2147651556,2147124982,3328,-1,8,8877
1374594587,5802,453.1000061035156000,17.5995998382568360,36.4842987060546900,222.2218933105468800,168.6809997558593800,17.5928096771240230,31.5531902313232420,55,230,69,69,62,9777,2146959542,2147513792,2147270326,2147456064,2147084178,2146952091,2147650340,2147124461,2491,-1,8,40281
1374594714,5805,442.1600036621094000,17.6532993316650400,36.4939994812011700,222.3321990966797000,166.6970062255859400,17.6526794433593750,31.5207004547119140,55,224,69,69,61,9778,2146958866,2147515757,2147270802,2147456338,2147071341,2146953142,2147653476,2147124836,2082,-2,8,18748
1374594841,5808,431.1499938964844000,17.7229003906250000,36.5047988891601560,222.8596038818359400,164.4075927734375000,17.7217807769775400,31.4620609283447270,55,228,69,69,61,9776,2146956992,2147512786,2147271369,2147457142,2147080283,2146956763,2147650642,2147125376,1687,-1,8,6454
1374594971,5804,419.8900146484375000,17.7758007049560550,36.5149002075195300,223.2787933349609400,162.5142059326172000,17.7789306640625000,31.4149703979492200,55,228,70,69,62,9781,2146956790,2147515593,2147271954,2147457572,2147074377,2146951058,2147647168,2147125796,612,-1,8,61612
1374595098,5806,409.1499938964844000,17.8603992462158200,36.5279998779296900,223.3459014892578000,159.9044036865234400,17.8577194213867200,31.3761501312255860,55,228,68,71,62,9777,2146957714,2147513572,2147271122,2147457700,2147072146,2146951689,2147652214,2147125321,2864,-1,8,13232
1374595227,5805,398.3800048828125000,17.9044990539550780,36.5359001159668000,223.8020935058593800,158.4273986816406200,17.9023208618164060,31.3326301574707030,55,227,69,69,62,9778,2146958061,2147512457,2147269824,2147456914,2147072841,2146950619,2147647058,2147125385,2104,-1,8,50648
1374595354,5802,387.9400024414062500,17.9850997924804700,36.5465011596679700,222.9763031005859400,155.7879028320312500,17.9820194244384770,31.3389701843261720,55,226,70,70,62,9779,2146954340,2147510701,2147270802,2147455469,2147076059,2146956809,2147648237,2147128384,2141,-1,8,20277
1374595481,5806,377.6600036621094000,18.0457992553710940,36.5542984008789060,222.7050933837890600,153.7765045166015600,18.0427608489990230,31.3257007598876950,55,227,69,69,61,9778,2146957174,2147514285,2147271360,2147456768,2147074294,2146956745,2147653339,2147128036,2151,-1,8,11424
1374595623,5808,366.3399963378906000,18.1021995544433600,36.5615005493164060,222.4272003173828000,151.8825073242187500,18.0999698638916000,31.3145999908447270,55,228,68,70,61,9711,2146958784,2147512612,2147269595,2147453961,2147074669,2146955812,2147652224,2147124425,1817,-1,8,37837
1374595762,5803,355.4700012207031000,18.1931991577148440,36.5708007812500000,220.8218994140625000,148.9644012451172000,18.1881198883056640,31.3577709197998050,56,225,69,70,63,9775,2146958171,2147510308,2147269714,2147455341,2147063341,2146950784,2147652141,2147128438,1426,-2,8,59751
1374595917,5806,342.5000000000000000,18.2880001068115230,36.5802001953125000,220.1054992675781200,145.8347015380859400,18.2826900482177730,31.3527793884277340,55,230,68,69,62,9785,2146955053,2147514596,2147269211,2147454564,2147079104,2146958308,2147653696,2147126153,624,-1,8,13729
1374596031,5806,331.4599914550781000,18.3929004669189450,36.5870018005371100,219.2357940673828000,142.0798034667968800,18.3961696624755860,31.3472099304199220,54,224,69,69,62,9749,2146956086,2147515044,2147270802,2147452388,2147074304,2146956726,2147651154,2147129042,3148,-2,8,1372
1374596148,5805,320.1000061035156000,18.4666004180908200,36.5885009765625000,219.2017974853515600,139.7458953857422000,18.4667301177978500,31.3176803588867200,55,227,68,69,61,9774,2146956114,2147512813,2147268013,2147455241,2147081892,2146964004,2147657280,2147125760,2293,-2,8,20681
1374596263,5805,308.9100036621094000,18.5837001800537100,36.5959014892578100,221.2032928466797000,136.0946960449218800,18.5771293640136720,31.1645393371582030,54,228,69,69,63,9775,2146955958,2147513654,2147267913,2147453677,2147081124,2146959552,2147662125,2147131904,1337,-2,8,7436
1374596378,5806,297.6000061035156000,18.6573009490966800,36.5954017639160160,218.7288970947265600,133.6622924804687500,18.6506900787353500,31.2602806091308600,55,224,69,72,62,9773,2146956544,2147512722,2147269037,2147452836,2147083328,2146962880,2147664393,2147127597,677,-1,8,34533
1374596483,5806,287.0499877929687500,18.7304992675781250,36.5961990356445300,218.8240051269531200,131.5783996582031200,18.7137203216552730,31.2275295257568360,55,234,69,71,61,9765,2146957046,2147512530,2147270400,2147453037,2147083264,2146967643,2147669942,2147127552,256,-1,7,10928
1374596598,5803,275.5199890136719000,18.8015003204345700,36.5924987792968750,226.8650970458984400,128.7736968994140600,18.7985801696777340,30.7793598175048830,55,227,69,68,62,9773,2146958217,2147513837,2147266870,2147446683,2147083154,2146963840,2147667410,2147129014,3234,-1,8,13812
1374596701,5808,265.5100097656250000,18.8845996856689450,36.5904998779296900,226.0957031250000000,125.1072006225586000,18.9095401763916000,30.7691497802734380,55,228,69,70,61,9765,2146955766,2147513307,2147265444,2147451593,2147083465,2146970779,2147659136,2147128521,3562,-2,8,33493
1374596830,5803,253.8399963378906200,19.0778999328613280,36.5973014831543000,225.3423004150390600,119.3582992553711000,19.0835895538330080,30.7305107116699220,55,227,68,70,61,9737,2146957092,2147516297,2147267172,2147450358,2147081005,2146988662,2147688064,2147128566,3048,-2,8,23712
1374596957,5804,242.8200073242187500,19.1744003295898440,36.5961990356445300,226.6352996826172000,116.5322036743164000,19.1691799163818360,30.6285095214843750,55,227,69,69,62,9773,2146954898,2147515227,2147268928,2147445403,2147084086,2146999524,2147725110,2147132790,2093,-2,8,13527
1374597086,5805,231.7799987792968800,19.2798995971679700,36.5976982116699200,227.9851989746093800,112.9613037109375000,19.2773704528808600,30.5143299102783200,55,228,68,69,60,9768,2146954715,2147517568,2147272493,2147448740,2147087350,2147025581,2147777563,2147136658,803,-1,8,55305
1374597213,5805,220.6199951171875000,19.3827991485595700,36.6031990051269500,228.6069946289062500,109.5310974121093800,19.3813304901123050,30.4384593963623050,56,229,70,71,60,9767,2146954304,2147518308,2147271643,2147449892,2147089353,2147058816,2147829787,2147136448,534,-1,8,14432
1374597340,5806,209.7799987792968800,19.4939002990722660,36.6041984558105500,231.0375061035156200,105.9748992919921900,19.4891395568847660,30.2726593017578120,57,230,69,70,60,9758,2146954038,2147515904,2147273124,2147447689,2147094025,2147094537,2147896146,2147141366,2780,-1,8,32770
1374597482,5802,198.1999969482422000,19.6142997741699220,36.6043014526367200,235.0917968750000000,102.0496978759765600,19.6081905364990230,30.0267200469970700,58,230,69,70,59,9762,2146960237,2147519067,2147276800,2147449408,2147100086,2147145773,2147983140,2147145536,2282,-2,8,31122
1374597537,5806,193.8399963378906200,19.6473999023437500,36.6041984558105500,236.0424041748047000,100.7377014160156200,19.6479892730712900,29.9645900726318360,59,227,69,69,59,9767,2146958948,2147520054,2147279286,2147444123,2147108516,2147184164,2148047350,2147149577,1741,-2,8,21565
1374597592,5808,189.5800018310547000,19.7077999114990230,36.6086006164550800,236.0050964355468800,98.8827667236328100,19.7042808532714840,29.9421405792236330,60,228,69,71,60,9762,2146956397,2147522797,2147279926,2147444672,2147114852,2147225481,2148105819,2147155053,1746,-1,8,28894
1374597647,5804,185.3999938964843800,19.7497997283935550,36.6111984252929700,236.3036041259765600,97.1729965209961000,19.7561702728271500,29.9058494567871100,61,230,69,70,60,9708,2146959277,2147522267,2147280923,2147445257,2147121408,2147250834,2148148845,2147156068,1446,-1,8,53137
1374597727,5806,179.8300018310547000,19.8402004241943360,36.6171989440918000,236.3972930908203000,94.5477066040039000,19.8358592987060550,29.8672008514404300,61,229,68,70,60,9691,2146956160,2147523053,2147284982,2147443867,2147129938,2147288923,2148205540,2147161828,1075,-1,8,31597
1374597782,5804,176.4799957275390600,19.8833999633789060,36.6180992126464840,236.5247955322265600,92.9017562866211000,19.8858299255371100,29.8398094177246100,62,229,69,71,59,9761,2146958381,2147525942,2147288420,2147444790,2147142262,2147355529,2148307053,2147170395,1039,-2,8,60908
1374597861,5805,171.8600006103515600,19.9783992767334000,36.6277999877929700,236.9190063476562500,89.8998031616211000,19.9770107269287100,29.7823009490966800,61,232,68,69,59,9758,2146953901,2147521133,2147289801,2147440722,2147146925,2147364653,2148311305,2147168265,796,-1,8,49789
1374597928,5806,167.9600067138672000,20.0471992492675780,36.6333007812500000,237.3298950195312500,87.5101394653320300,20.0496006011962900,29.7320899963378900,62,232,69,70,60,9752,2146957723,2147524580,2147293659,2147438637,2147165074,2147456859,2148452845,2147178953,435,-1,8,19553
1374597995,5804,164.1699981689453000,20.1182003021240230,36.6370010375976560,237.8202056884765600,85.2714462280273400,20.1176300048828120,29.6802406311035160,62,232,69,70,61,9759,2146959168,2147521508,2147286016,2147441938,2147131510,2147260214,2148106688,2147156150,3305,-1,8,50232
1374598065,5803,160.3999938964843800,20.2127990722656250,36.6477012634277340,237.6755065917968800,82.0804672241211000,20.2146301269531250,29.6460609436035160,62,232,69,70,61,9759,2146955428,2147517238,2147272950,2147442057,2147111734,2147118774,2147856822,2147141110,2474,-1,9,27833
1374598144,5804,156.4199981689453000,20.3554000854492200,36.6557998657226560,237.3081054687500000,77.6416397094726600,20.3496303558349600,29.6058292388916000,63,231,69,69,61,9761,2146953307,2147518765,2147277732,2147443364,2147128795,2147196489,2147964525,2147149248,2359,-1,8,56482
1374598223,5803,152.4900054931640600,20.5116996765136720,36.6641006469726560,239.3923950195312500,72.6705627441406200,20.5009002685546880,29.4450798034667970,64,230,70,70,60,9755,2146960356,2147527753,2147291785,2147442998,2147197668,2147504118,2148460699,2147185353,1974,-2,8,36414
1374598302,5805,148.6600036621093800,20.6089000701904300,36.6694984436035160,241.0977020263672000,69.0795974731445300,20.6102409362792970,29.3209495544433600,64,232,69,71,61,9754,2146961728,2147535625,2147306057,2147441014,2147268891,2147778742,2148878665,2147212946,1321,-2,8,19176
1374598384,5804,144.7899932861328000,20.6975994110107420,36.6735992431640600,243.8072967529297000,66.4746627807617200,20.6895809173584000,29.1647396087646500,63,231,69,70,61,9752,2146965028,2147541165,2147308278,2147442605,2147302409,2147854720,2148972004,2147218925,919,-2,8,24345
1374598475,5805,140.6499938964843800,20.7961006164550780,36.6801986694335940,246.5924987792968800,63.3150405883789060,20.7858600616455080,29.0001392364501950,64,233,70,70,60,9752,2146967972,2147545947,2147318317,2147442285,2147366592,2148065499,2149227876,2147239981,3140,-2,9,701
1374598566,5804,136.7100067138672000,20.9109001159667970,36.6828002929687500,246.9147949218750000,59.5205993652343750,20.9015407562255860,28.9376506805419920,62,229,68,69,60,9749,2146965696,2147535259,2147299355,2147439122,2147300470,2147725897,2148680082,2147203702,2543,-1,8,23801
1374598671,5807,132.6300048828125000,20.9873008728027340,36.6883010864257800,247.0805053710937500,57.0373191833496100,20.9772701263427730,28.8986797332763670,64,232,69,69,61,9752,2146969883,2147557778,2147332114,2147438189,2147523556,2148431387,2149660315,2147274240,1719,-1,9,24972
1374598774,5802,128.8999938964843800,21.1000003814697270,36.6896018981933600,249.3845977783203000,53.4846115112304700,21.0856704711914060,28.7527503967285160,63,231,69,70,59,9750,2146979190,2147576667,2147365714,2147440466,2147765961,2149125174,2150572928,2147340946,1588,-1,9,27064
1374598901,5807,125.2099990844726600,21.1998004913330080,36.6842994689941400,254.1470947265625000,49.9026908874511700,21.1950206756591800,28.5019493103027340,64,233,69,70,60,9723,2146992237,2147596635,2147395355,2147443858,2148045449,2149844882,2151480603,2147408329,2161,-1,8,977
1374599041,5807,120.6200027465820300,21.4023990631103500,36.6882019042968750,258.6545104980469000,43.4718284606933600,21.3914909362792970,28.2313995361328120,64,234,68,71,59,9733,2147003300,2147624073,2147425133,2147443574,2148385371,2150540105,2152296393,2147477467,1849,-2,9,18573
1374599144,5807,117.2099990844726600,21.5998001098632800,36.6973991394043000,260.5293884277344000,37.1324386596679700,21.5853500366210940,28.0746498107910160,63,236,70,69,59,9725,2147012032,2147635053,2147444928,2147444324,2148648146,2151002459,2152783853,2147521956,1708,-1,9,3343
1374599302,5810,112.1100006103515600,21.8570003509521500,36.6936988830566400,265.0635986328125000,28.9444103240966800,21.8360290527343750,27.7881298065185550,67,237,68,71,59,9701,2147008256,2147615625,2147408265,2147439296,2148571520,2150416704,2151813906,2147455588,1753,-1,9,27552
1374599381,5804,108.6600036621093800,21.9636993408203120,36.6883010864257800,268.1469116210937500,25.2659091949462900,21.9487590789794920,27.6190891265869140,68,238,69,71,59,9720,2147056932,2147702774,2147531474,2147445988,2149872182,2153125942,2155065545,2147722980,1386,-1,9,1959
1374599484,5805,104.8000030517578100,22.0904006958007800,36.6604003906250000,266.9963073730469000,20.9932899475097660,22.0797805786132800,27.6124706268310550,76,241,69,72,58,9696,2147008246,2147597723,2147376512,2147438957,2148449097,2149693568,2150686272,2147377490,1411,-2,9,19124
1374599617,5807,100.8000030517578100,22.4027996063232420,36.6455001831054700,265.2609863281250000,11.2031803131103520,22.3803596496582030,27.5618705749511720,79,243,70,71,59,9681,2147125458,2147796370,2147667392,2147451721,2151815131,2156115072,2158330825,2148031808,1027,-1,8,48241
1374599672,5802,98.9700012207031200,22.4661006927490230,36.6394004821777340,272.7251892089844000,8.7117338180542000,22.4569301605224600,27.2366790771484380,80,243,71,73,60,9679,2147135634,2147800914,2147664512,2147450944,2152056877,2156217170,2158287506,2148042450,1137,-1,8,64988
1374599727,5802,96.9400024414062500,22.5212993621826170,36.6064987182617200,277.2250976562500000,6.6774129867553710,22.5194797515869140,27.0387706756591800,81,244,70,72,60,9679,2147160091,2147833901,2147702464,2147455826,2152704320,2157080219,2159151552,2148138011,1129,-2,9,4102
1374599782,5805,94.8399963378906200,22.5919990539550780,36.6323013305664060,276.4114074707031000,4.6089649200439450,22.5831108093261720,27.0447807312011720,77,241,70,72,59,9690,2147020288,2147600402,2147371099,2147435922,2148787309,2149701632,2150398756,2147379858,1016,-1,9,38052
1374599837,5803,92.6900024414062500,22.6415996551513670,36.6143989562988300,272.6427917480469000,2.9232859611511230,22.6349792480468750,27.1694393157959000,79,242,70,72,58,9673,2147072603,2147675748,2147470473,2147439570,2150212022,2152042340,2152969490,2147609654,1123,-1,8,8195
1374599922,5804,89.1200027465820300,22.9729003906250000,36.5899009704589840,291.8508911132812500,-6.9999928474426270,22.9406394958496100,26.3342704772949220,77,247,69,72,57,9663,2147324800,2148026139,2147912987,2147467382,2156791241,2162579812,2164497545,2148698953,1620,-2,9,15230
1374599977,5808,86.9100036621093800,23.0949993133544920,36.5526008605957000,300.5163879394531000,-11.7904100418090820,23.0884094238281250,25.9726600646972660,77,245,70,72,57,9662,2147371620,2148079378,2147951341,2147467904,2158018084,2164000630,2165594084,2148824978,1919,-2,9,4594
1374600032,5804,85.4599990844726600,23.4944992065429700,36.5164985656738300,317.8493041992187500,-22.4491291046142580,23.4176902770996100,25.2681407928466800,76,245,69,72,59,9655,2147412717,2148115117,2147992521,2147469476,2158960969,2165188288,2166578852,2148933010,2868,-1,9,56762
1374600261,5804,82.9800033569336000,23.7255001068115230,36.5246009826660160,365.6185913085937500,-31.9530601501464840,23.7119007110595700,23.7345104217529300,73,243,70,73,58,9649,2147507346,2148215232,2148076507,2147474678,2161173577,2167765952,2168673837,2149174518,2915,-1,9,7569
1374600316,5803,81.0899963378906200,23.8941001892089840,36.5432014465332000,361.5227050781250000,-36.8654289245605500,23.8642005920410160,23.7922592163085940,72,243,70,74,57,9658,2147579273,2148302454,2148161060,2147477458,2163176073,2170261961,2170793901,2149402230,2009,-1,9,51715
1374600383,5803,79.0000000000000000,23.8973999023437500,36.5423011779785160,375.3598022460937500,-37.6939010620117200,23.8899002075195300,23.4049396514892580,71,247,69,74,58,9635,2147672950,2148401654,2148259876,2147484096,2165495186,2173178980,2173335890,2149674221,1812,-2,9,45688
1374600450,5808,77.4700012207031200,24.0601005554199220,36.5155982971191400,385.9937133789062500,-42.0877799987793000,24.0262908935546880,23.0754909515380860,73,245,71,73,57,9637,2147754011,2148494665,2148345691,2147490432,2167354843,2175379328,2175046244,2149852169,1742,-2,9,8805
1374600583,5803,75.4700012207031200,24.3448009490966800,36.5261993408203100,367.2749023437500000,-52.0035896301269500,24.3345603942871100,23.4618606567382800,70,248,69,75,55,9652,2147941549,2148692178,2148516077,2147500178,2172448182,2181910189,2180529901,2150414052,2098,-1,9,29089
1374600674,5802,73.1900024414062500,24.5279998779296880,36.5143013000488300,389.8926086425781000,-57.4976806640625000,24.5056591033935550,22.8024597167968750,67,241,70,74,57,9651,2148060388,2148806637,2148614985,2147502646,2175093568,2184621476,2182267154,2150591186,2005,-2,9,37462
1374600753,5804,71.3199996948242200,24.6432991027832030,36.4767990112304700,423.7267150878906000,-61.3075790405273440,24.6244297027587900,21.9338207244873050,69,242,70,72,56,9643,2148145892,2148890989,2148683181,2147506998,2177275675,2186996690,2184010889,2150806976,2002,-1,9,19823
1374600874,5801,69.1699981689453100,25.0086002349853500,36.4399986267089840,452.6513977050781000,-72.0654296875000000,24.9603900909423830,21.1644401550292970,68,243,70,72,58,9648,2148305819,2149043437,2148788690,2147513344,2181441920,2191539931,2187064768,2151159661,2341,-2,9,56741
1374601174,5804,67.3000030517578100,25.3696002960205080,36.4668006896972660,485.0794982910156000,-84.5557785034179700,25.3515491485595700,20.3502597808837900,65,238,68,75,57,9646,2148622418,2149359030,2149045824,2147525211,2188945408,2200268836,2193639963,2151840402,2372,-2,9,32189
1374601265,5802,65.2900009155273400,25.4428997039794920,36.4401016235351560,465.3723144531250000,-87.3870086669921900,25.4403800964355470,20.7257099151611330,65,238,68,74,56,9663,2148838116,2149556790,2149184512,2147536118,2194342427,2206018624,2197549275,2152251657,2387,-2,9,5821
1374601356,5808,63.3800010681152340,25.6639995574951170,36.3866004943847660,469.4919128417969000,-92.9817962646484400,25.6161098480224600,20.5788002014160160,66,241,69,71,55,9657,2149058541,2149782226,2149378048,2147550674,2199964425,2211896640,2201658413,2152761380,1882,-1,9,15162
1374601454,5807,61.3300018310546900,25.7105998992919920,36.3198013305664060,482.2374877929687500,-96.1196975708007800,25.7147808074951170,20.2829399108886720,64,238,68,73,58,9652,2149388626,2150120301,2149763300,2147604306,2208024374,2220821330,2208286637,2153465664,879,-2,9,16330
1374601779,5804,59.4099998474121100,26.2500000000000000,36.1782989501953100,537.2645263671875000,-112.0267028808593800,26.2162094116210940,19.0599098205566400,63,241,69,73,55,9647,2149629202,2150330020,2149863268,2147598244,2215226386,2228601508,2213373714,2153898560,291,-2,8,60185
1374602103,5805,57.2500000000000000,26.6784000396728500,36.1580009460449200,536.8040161132812000,-125.8528976440429700,26.6537895202636720,18.9212608337402340,63,239,68,73,56,9648,2149979373,2150651465,2150044909,2147591963,2224262966,2238135268,2219962038,2154722368,1999,-2,9,33376
1374602218,5802,55.9599990844726560,26.7196998596191400,36.1548995971679700,556.4586791992188000,-128.0576934814453000,26.7237300872802730,18.5490703582763670,62,236,69,74,56,9629,2150132059,2150827081,2150331300,2147662381,2228576813,2242833206,2223698944,2155266249,1093,-2,9,62128
1374602510,5804,53.7599983215332000,27.0807991027832030,36.1040992736816400,625.3394165039062000,-139.0720977783203000,27.0737495422363280,17.3026599884033200,63,243,68,72,55,9624,2150588324,2151239917,2150636141,2147705133,2239635766,2253482889,2229922733,2156187126,1000,-1,9,12047
1374602570,5805,52.7099990844726560,27.1121006011962900,36.1040992736816400,618.6879272460938000,-140.5428924560547000,27.1205806732177730,17.3908004760742200,62,236,67,75,55,9622,2150787209,2151410788,2150782217,2147737106,2246124105,2260622582,2235204269,2156840329,911,-1,9,44900
1374602672,5807,50.5200004577636700,27.2889995574951170,36.0942993164062500,652.8123779296875000,-148.1071014404297000,27.3617000579834000,16.7920494079589840,62,240,67,73,55,9609,2151421129,2152020278,2151261458,2147784438,2261960402,2277633837,2247489590,2158474724,1045,-1,9,18354
1374602730,5808,48.7999992370605500,27.6508998870849600,36.1076011657714840,610.3593750000000000,-155.8002014160156200,27.6074905395507800,17.3620491027832030,63,237,68,73,55,9619,2151468123,2152001846,2151086637,2147698532,2263116498,2277951323,2246890322,2158389970,1632,-2,8,285
1374602961,5804,46.7599983215332000,27.9209003448486330,36.1010017395019500,671.5805053710938000,-166.4797058105468800,27.9496307373046880,16.3264808654785160,61,238,67,72,55,9619,2151791030,2152220498,2151164004,2147708690,2271735936,2286232329,2251712265,2159155620,3387,-2,8,64789
1374603018,5804,44.8600006103515600,28.2147006988525400,36.0764999389648440,583.4423828125000000,-174.2203063964843800,28.1983299255371100,17.6042003631591800,60,231,68,72,56,9628,2152117522,2152503478,2151342838,2147715465,2279043547,2292945371,2256105874,2159950070,2495,-3,8,61566
1374603356,5808,42.7799987792968750,28.3962993621826170,36.0555000305175800,614.8679809570312000,-181.0019073486328000,28.4167003631591800,17.0269393920898440,58,232,66,73,57,9641,2153140022,2153519680,2152386304,2147994011,2306618770,2320915145,2274776219,2162566994,922,-2,8,50474
1374603413,5807,40.8199996948242200,28.3992004394531250,36.0540008544921900,593.4650268554688000,-181.1696014404297000,28.4221096038818360,17.3668594360351560,60,230,68,71,59,9642,2153952960,2154291958,2153015277,2148095570,2329249371,2345026550,2292157494,2165142052,1026,-2,9,55206
1374603470,5807,38.5400009155273440,28.3997993469238280,36.0541000366210940,570.7025756835938000,-181.2026062011718800,28.4231700897216800,17.7436008453369140,59,228,68,73,53,9643,2154224338,2154466953,2153025380,2148084196,2334984566,2349002221,2293163538,2165635090,799,-2,9,4675